Prague, Czech Republic

1:08 AM CET on February 08, 2016 (GMT +0100)
Ruzyne

Weather History for LKPR - January, 2013

Change the Weather History Date:

Tuesday, January 8, 2013

  Actual Average Record
Temperature  
Mean Temperature 38 °F -  
Max Temperature 41 °F 34 °F 53 °F (2005)
Min Temperature 35 °F 23 °F 8 °F (2003)
Degree Days  
Heating Degree Days 27    
Moisture  
Dew Point 37 °F    
Average Humidity 95    
Maximum Humidity 100    
Minimum Humidity 87    
Precipitation  
Precipitation 0.08 in 0.03 in - ()
Sea Level Pressure  
Sea Level Pressure 30.21 in    
Wind  
Wind Speed 6 mph ()    
Max Wind Speed 13 mph    
Max Gust Speed -    
Visibility 4.1 miles    
Events Fog , Rain    
Averages and records for this station are not official NWS values.
T = Trace of Precipitation, MM = Missing Value Source: Averaged Metar Reports

Daily Weather History Graph

Daily Weather History Graph

Search for Another Location

Airport or City:

Trip Planner

Search our weather history database for the weather conditions in past years. The results will help you decide how hot, cold, wet, or windy it might be!

Date:

Astronomy

Jan. 08, 2013 Rise Set
Actual Time 8:00 AM CET 4:19 PM CET
Civil Twilight 7:22 AM CET 4:57 PM CET
Nautical Twilight 6:41 AM CET 5:38 PM CET
Astronomical Twilight 6:02 AM CET 6:17 PM CET
Moon 4:10 AM CET 1:08 PM CET
Length of Visible Light 9h 34m
Length of Day
8h 19m
Waning Crescent, 16% of the Moon is Illuminated
Jan 8
Waning Crescent
Jan 11
New
Jan 19
First Quarter
Jan 27
Full
Feb 3
Last Quarter

Hourly Weather History & Observations

Time (CET) Temp. Windchill Dew Point Humidity Pressure Visibility Wind Dir Wind Speed Gust Speed Precip Events Conditions
12:00 AM 37.4 °F 33.8 °F 35.6 °F 93% 30.30 in 5.0 mi South 4.6 mph - N/A   Overcast
12:30 AM 37.4 °F 33.8 °F 35.6 °F 93% 30.27 in 2.8 mi South 4.6 mph - N/A   Overcast
1:00 AM 37 °F - 37 °F 98% 30.34 in 3 mi South 4.5 mph - -   Mist
1:00 AM 37.4 °F 33.8 °F 37.4 °F 100% 30.27 in 2.8 mi South 4.6 mph - N/A   Overcast
1:30 AM 37.4 °F 32.8 °F 37.4 °F 100% 30.27 in 3.7 mi SSW 5.8 mph - N/A   Overcast
2:00 AM 37.4 °F 32.8 °F 37.4 °F 100% 30.27 in 3.7 mi SSW 5.8 mph - N/A   Overcast
2:30 AM 37.4 °F 33.8 °F 37.4 °F 100% 30.27 in 5.0 mi SSW 4.6 mph - N/A Rain Light Rain
3:00 AM 37.4 °F 32.8 °F 37.4 °F 100% 30.27 in 6.2 mi SSW 5.8 mph - N/A   Overcast
3:30 AM 37.4 °F 32.8 °F 37.4 °F 100% 30.27 in 6.2 mi SSW 5.8 mph - N/A   Overcast
4:00 AM 37.4 °F 32.8 °F 37.4 °F 100% 30.24 in 6.2 mi SW 5.8 mph - N/A   Overcast
4:30 AM 37.4 °F 33.8 °F 37.4 °F 100% 30.24 in 6.2 mi SW 4.6 mph - N/A   Overcast
5:00 AM 37.4 °F 34.9 °F 37.4 °F 100% 30.24 in 6.2 mi WSW 3.5 mph - N/A   Overcast
5:30 AM 37.4 °F - 35.6 °F 93% 30.21 in 6.2 mi Variable 2.3 mph - N/A   Scattered Clouds
6:00 AM 37.4 °F 34.9 °F 35.6 °F 93% 30.21 in 6.2 mi SSW 3.5 mph - N/A   Partly Cloudy
6:30 AM 37.4 °F 32.8 °F 35.6 °F 93% 30.21 in 6.2 mi SW 5.8 mph - N/A   Scattered Clouds
7:00 AM 37 °F - 36 °F 95% 30.29 in 6 mi WSW 4.5 mph - -   Partly Cloudy
7:00 AM 37.4 °F 33.8 °F 35.6 °F 93% 30.21 in 6.2 mi West 4.6 mph - N/A   Partly Cloudy
7:30 AM 37.4 °F 33.8 °F 35.6 °F 93% 30.24 in 5.6 mi West 4.6 mph - N/A   Partly Cloudy
7:48 AM 37.4 °F 33.8 °F 35.6 °F 93% 30.24 in 1.9 mi NNW 4.6 mph - N/A Fog Patches of Fog
7:50 AM 37.4 °F 32.8 °F 35.6 °F 93% 30.24 in 1.3 mi NNW 5.8 mph - N/A Fog Patches of Fog
7:52 AM 37.4 °F 32.8 °F 35.6 °F 93% 30.24 in 0.3 mi NNW 5.8 mph - N/A Fog Light Drizzle
8:00 AM 35.6 °F 30.7 °F 33.8 °F 93% 30.24 in 0.2 mi NNW 5.8 mph - N/A Fog , Rain Light Rain
8:05 AM 35.6 °F 30.7 °F 33.8 °F 93% 30.24 in 0.2 mi North 5.8 mph - N/A Fog , Rain Light Rain
8:30 AM 35.6 °F - 33.8 °F 93% 30.24 in 0.3 mi Variable 2.3 mph - N/A Fog , Rain Light Rain
8:36 AM 35.6 °F - 33.8 °F 93% 30.24 in 0.4 mi Variable 1.2 mph - N/A Fog , Rain Light Rain
8:45 AM 35.6 °F 32.8 °F 33.8 °F 93% 30.21 in 0.4 mi SSE 3.5 mph - N/A Fog , Rain Light Rain
9:00 AM 35.6 °F 30.7 °F 35.6 °F 100% 30.21 in 0.4 mi SSE 5.8 mph - N/A Fog , Rain Light Rain
9:18 AM 37.4 °F 32.1 °F 35.6 °F 93% 30.21 in 1.2 mi SSE 6.9 mph - N/A   Partly Cloudy
9:30 AM 37.4 °F 32.8 °F 35.6 °F 93% 30.21 in 2.2 mi SSE 5.8 mph - N/A   Mostly Cloudy
9:39 AM 37.4 °F 32.8 °F 37.4 °F 100% 30.21 in - SSW 5.8 mph - N/A Rain Light Rain
10:00 AM 37.4 °F 32.8 °F 37.4 °F 100% 30.21 in 2.5 mi SSW 5.8 mph - N/A Rain Light Rain
10:30 AM 39.2 °F 33.6 °F 37.4 °F 93% 30.21 in 3.1 mi SSW 8.1 mph - N/A Rain Light Rain
11:00 AM 39.2 °F 32.0 °F 37.4 °F 93% 30.18 in 4.3 mi SSW 11.5 mph - N/A Rain Light Rain
11:30 AM 39.2 °F 31.6 °F 37.4 °F 93% 30.18 in 3.7 mi SW 12.7 mph - N/A Rain Light Rain
12:00 PM 41.0 °F 33.9 °F 39.2 °F 93% 30.15 in 4.3 mi SW 12.7 mph - N/A Rain Light Rain
12:30 PM 39.2 °F 32.0 °F 39.2 °F 100% 30.15 in 4.3 mi SW 11.5 mph - N/A Rain Light Rain
1:00 PM 40 °F - 39 °F 93% 30.20 in 4 mi WSW 8.9 mph - - Rain Light Rain
1:00 PM 41.0 °F 34.7 °F 39.2 °F 93% 30.15 in 3.7 mi WSW 10.4 mph - N/A Rain Light Rain
1:30 PM 41.0 °F 34.3 °F 39.2 °F 93% 30.15 in 4.3 mi WSW 11.5 mph - N/A Rain Light Rain
2:00 PM 41.0 °F 34.3 °F 39.2 °F 93% 30.12 in 4.3 mi WSW 11.5 mph - N/A Rain Light Rain
2:30 PM 41.0 °F 34.3 °F 39.2 °F 93% 30.12 in 4.3 mi WSW 11.5 mph - N/A   Overcast
3:00 PM 41.0 °F 34.3 °F 37.4 °F 87% 30.15 in 3.7 mi WSW 11.5 mph - N/A   Overcast
3:30 PM 41.0 °F 34.3 °F 37.4 °F 87% 30.15 in 3.7 mi WSW 11.5 mph - N/A   Overcast
4:00 PM 41.0 °F 35.2 °F 37.4 °F 87% 30.15 in 3.7 mi West 9.2 mph - N/A   Overcast
4:30 PM 39.2 °F 33.0 °F 39.2 °F 100% 30.15 in 3.1 mi WSW 9.2 mph - N/A   Overcast
5:00 PM 41.0 °F 35.8 °F 39.2 °F 93% 30.15 in 3.7 mi WSW 8.1 mph - N/A   Overcast
5:30 PM 39.2 °F 33.0 °F 39.2 °F 100% 30.15 in 4.3 mi WSW 9.2 mph - N/A   Overcast
6:00 PM 41.0 °F 35.2 °F 39.2 °F 93% 30.15 in 5.6 mi West 9.2 mph - N/A   Overcast
6:30 PM 41.0 °F 35.8 °F 39.2 °F 93% 30.15 in 5.6 mi West 8.1 mph - N/A   Mostly Cloudy
7:00 PM 40 °F - 38 °F 92% 30.22 in 6 mi WSW 6.7 mph - -   Mist
7:00 PM 41.0 °F 35.8 °F 39.2 °F 93% 30.18 in 5.6 mi West 8.1 mph - N/A   Overcast
7:30 PM 39.2 °F 33.6 °F 39.2 °F 100% 30.15 in 5.0 mi WSW 8.1 mph - N/A   Mostly Cloudy
8:00 PM 39.2 °F 33.6 °F 39.2 °F 100% 30.18 in 5.0 mi WSW 8.1 mph - N/A   Mostly Cloudy
8:30 PM 39.2 °F 33.6 °F 37.4 °F 93% 30.18 in 5.0 mi WSW 8.1 mph - N/A   Scattered Clouds
9:00 PM 41.0 °F 34.7 °F 37.4 °F 87% 30.15 in 6.2 mi WSW 10.4 mph - N/A   Scattered Clouds
9:30 PM 39.2 °F 33.6 °F 37.4 °F 93% 30.15 in 6.2 mi WSW 8.1 mph - N/A   Scattered Clouds
10:00 PM 39.2 °F 33.0 °F 37.4 °F 93% 30.18 in 6.2 mi WSW 9.2 mph - N/A   Mostly Cloudy
10:30 PM 39.2 °F 33.0 °F 37.4 °F 93% 30.18 in 6.2 mi WSW 9.2 mph - N/A   Mostly Cloudy
11:00 PM 39.2 °F 33.0 °F 37.4 °F 93% 30.18 in 6.2 mi WSW 9.2 mph - N/A   Mostly Cloudy
11:30 PM 39.2 °F 33.0 °F 37.4 °F 93% 30.18 in 6.2 mi WSW 9.2 mph - N/A   Mostly Cloudy